GW0085 Weather Reports


Display with metric or nautical units.
time (UTC)temp
F
wind
direction
speed
MPH
gust
MPH
rain 1hr
in
rain 24hr
in
rain mn
in
humidity
%
barometer
mb
20260508080101 35 274 1.0 3.0 0.00 0.00 0.00 86 1005.3
20260508074601 35 277 1.0 3.0 0.00 0.01 0.00 85 1005.0
20260508073059 36 277 2.0 3.0 0.00 0.01 0.00 85 1004.9
20260508071600 36 277 0.0 1.0 0.00 0.01 0.00 83 1004.9
20260508070059 36 0 0.0 2.0 0.00 0.01 0.00 83 1004.9
20260508064558 36 0 1.0 2.0 0.00 0.03 0.00 84 1004.8
20260508063108 36 277 0.0 3.0 0.00 0.03 0.00 83 1005.0
20260508061559 37 277 1.0 2.0 0.00 0.03 0.00 82 1005.0
20260508060108 38 277 1.0 2.0 0.00 0.03 0.00 80 1005.1
20260508054558 38 0 0.0 2.0 0.00 0.20 0.00 78 1005.3
20260508053103 38 0 0.0 2.0 0.00 0.20 0.00 79 1005.3
20260508051558 39 277 1.0 3.0 0.00 0.20 0.00 78 1005.3
20260508050058 40 277 0.0 2.0 0.00 0.20 0.00 76 1005.4
20260508044600 40 0 0.0 2.0 0.00 0.21 0.00 73 1005.5
20260508043057 41 286 0.0 2.0 0.00 0.21 0.00 74 1005.3
20260508041557 42 287 1.0 2.0 0.00 0.21 0.00 69 1005.5
20260508034559 43 0 0.0 3.0 0.00 0.21 0.21 64 1005.6
20260508033057 43 306 0.0 5.0 0.00 0.21 0.21 67 1005.7
20260508031557 44 0 0.0 6.0 0.00 0.21 0.21 67 1005.6
20260508030100 45 304 1.0 3.0 0.00 0.21 0.21 66 1005.6
20260508024556 46 300 1.0 4.0 0.00 0.27 0.21 61 1005.6
20260508023055 47 288 1.0 7.0 0.00 0.27 0.21 55 1005.4
20260508021557 48 300 2.0 11.0 0.00 0.27 0.21 54 1005.5
20260508020103 49 269 2.0 8.0 0.00 0.27 0.21 52 1005.4
20260508014557 49 311 2.0 13.0 0.00 0.57 0.21 52 1005.4
20260508013055 50 320 4.0 13.0 0.00 0.57 0.21 51 1005.5
20260508011557 51 328 4.0 11.0 0.00 0.57 0.21 51 1005.5
20260508010056 51 247 5.0 13.0 0.00 0.57 0.21 51 1005.2
20260508004601 52 333 4.0 11.0 0.00 0.79 0.21 52 1005.2
20260508003105 52 317 3.0 12.0 0.00 0.79 0.21 55 1004.9
20260508001559 52 301 2.0 9.0 0.00 0.79 0.21 64 1004.7
20260508000059 52 275 2.0 5.0 0.00 0.79 0.21 72 1004.4
20260507234558 53 323 1.0 7.0 0.00 0.91 0.21 70 1004.1
20260507233059 54 297 1.0 4.0 0.00 0.91 0.21 69 1003.7
20260507231607 55 255 2.0 7.0 0.00 0.91 0.21 67 1003.4
20260507230105 55 219 3.0 7.0 0.00 0.91 0.21 67 1003.3
20260507224559 54 232 2.0 6.0 0.00 0.96 0.21 67 1003.1
20260507223056 54 274 1.0 7.0 0.00 0.96 0.21 67 1003.0
20260507221556 54 0 0.0 5.0 0.00 0.96 0.21 66 1002.9
20260507220055 55 0 1.0 4.0 0.00 0.96 0.21 66 1003.0
20260507214605 55 226 1.0 9.0 0.00 1.02 0.21 67 1003.0
20260507213103 55 180 1.0 7.0 0.00 1.02 0.21 65 1003.1
20260507211600 55 227 2.0 10.0 0.00 1.02 0.21 67 1003.0
20260507204557 56 148 5.0 10.0 0.00 1.02 0.21 65 1002.8
20260507203109 56 169 6.0 12.0 0.00 1.02 0.21 63 1002.7
20260507201609 57 173 6.0 12.0 0.00 1.02 0.21 61 1002.7
20260507200109 59 132 2.0 13.0 0.00 1.02 0.21 60 1002.8
20260507194556 60 292 7.0 23.0 0.00 1.02 0.21 57 1002.8
20260507193058 60 153 4.0 16.0 0.00 1.02 0.21 59 1002.8
20260507191602 61 172 4.0 18.0 0.00 1.02 0.21 59 1002.8
20260507190105 63 155 5.0 13.0 0.00 1.02 0.21 53 1002.8
20260507184600 63 279 3.0 11.0 0.00 1.02 0.21 58 1003.0
20260507183101 62 209 6.0 14.0 0.00 1.02 0.21 55 1003.0
20260507181601 63 233 7.0 13.0 0.00 1.02 0.21 54 1003.1
20260507180058 63 242 4.0 10.0 0.00 1.02 0.21 52 1003.1
20260507174557 64 263 7.0 12.0 0.00 1.02 0.21 50 1003.3
20260507173102 63 302 7.0 13.0 0.00 1.02 0.21 48 1003.1
20260507171555 62 276 3.0 10.0 0.00 1.02 0.21 54 1003.0
20260507170109 63 35 4.0 10.0 0.00 1.02 0.21 47 1003.2
20260507164603 63 329 3.0 13.0 0.00 1.02 0.21 50 1003.4
20260507163059 61 281 4.0 12.0 0.00 1.02 0.21 53 1003.5
20260507161601 60 360 3.0 10.0 0.00 1.02 0.21 54 1003.7
20260507160058 61 171 3.0 12.0 0.00 1.02 0.21 52 1003.8
20260507154600 58 194 4.0 9.0 0.00 1.02 0.21 55 1004.0
20260507153106 60 16 3.0 11.0 0.00 1.02 0.21 56 1004.1
20260507151556 60 333 5.0 11.0 0.00 1.02 0.21 57 1004.4
20260507150054 58 90 2.0 10.0 0.00 1.02 0.21 61 1004.5
20260507144555 58 238 0.0 9.0 0.00 1.02 0.21 64 1004.6
20260507143101 58 297 5.0 11.0 0.00 1.02 0.21 64 1004.8
20260507141557 56 292 3.0 9.0 0.00 1.02 0.21 69 1005.0
20260507140057 55 315 3.0 10.0 0.00 1.02 0.21 69 1005.1
20260507134603 55 248 2.0 8.0 0.00 1.02 0.21 72 1005.0
20260507133132 55 0 2.0 10.0 0.00 1.02 0.21 71 1005.2
20260507131557 54 310 2.0 9.0 0.00 1.02 0.21 76 1005.4
20260507130110 53 346 5.0 12.0 0.00 1.02 0.21 78 1005.1
20260507124559 51 282 3.0 13.0 0.00 1.02 0.21 82 1005.2
20260507123055 50 281 4.0 11.0 0.00 1.02 0.21 86 1004.7
20260507121611 49 275 2.0 9.0 0.00 1.02 0.21 87 1005.1
20260507120105 49 303 4.0 9.0 0.00 1.02 0.21 88 1005.1
20260507114635 48 281 4.0 9.0 0.00 1.02 0.21 91 1005.6
20260507113057 47 259 2.0 6.0 0.00 1.02 0.21 92 1005.8
20260507111603 46 295 2.0 9.0 0.00 1.02 0.21 91 1005.8
20260507110057 46 267 4.0 8.0 0.00 1.02 0.21 91 1005.6
20260507104556 46 263 3.0 10.0 0.00 1.02 0.21 92 1005.5
20260507103056 46 320 3.0 8.0 0.00 1.02 0.21 93 1004.8
20260507101604 46 273 3.0 9.0 0.00 1.02 0.21 92 1004.9
20260507094559 46 308 4.0 10.0 0.00 1.02 0.21 93 1004.7
20260507093055 46 323 3.0 8.0 0.00 1.02 0.21 94 1004.3
20260507091556 46 298 3.0 8.0 0.00 1.02 0.21 94 1005.2
20260507090100 47 259 2.0 9.0 0.00 1.02 0.21 95 1004.9
20260507084601 47 261 3.0 12.0 0.00 1.02 0.21 95 1004.6
20260507083057 47 273 3.0 8.0 0.00 1.02 0.21 95 1004.2
20260507081555 47 261 3.0 9.0 0.00 1.02 0.21 95 1004.0